Regional Weather Roundup
Issued by NWS

Home | Current Version | Previous Version | Graphics & Text | Print | Product List | Glossary On
Versions: 1 2 3 4 5 6 7 8 9 10 11 12 13 14 15 16 17 18 19 20 21 22 23 24 25 26 27 28 29 30 31 32 33 34 35 36 37 38 39 40 41 42 43 44 45 46 47 48 49 50
799
ASUS43 KLOT 240959
RWRIL

ILLINOIS REGIONAL WEATHER ROUNDUP
NATIONAL WEATHER SERVICE CHICAGO/ROMEOVILLE IL
500 AM CDT WED MAY 24 2017

NOTE: "FAIR" INDICATES FEW OR NO CLOUDS BELOW 12,000 FEET WITH NO
SIGNIFICANT WEATHER AND/OR OBSTRUCTIONS TO VISIBILITY.

* THESE STATIONS ARE NOT UNDER NWS QUALITY CONTROL. THEY ALSO MAY NOT
  REPORT WEATHER SUCH AS PRECIPITATION OR FOG.

ILZ001-002-007-009-015-016-024-241100-
NORTHWEST ILLINOIS

CITY           SKY/WX    TMP DP  RH WIND       PRES   REMARKS
MOLINE         NOT AVBL
STERLING*      FOG       50  50 100 N6        29.62F VSB 1/4
$$

ILZ003-004-008-010-011-017-018-241100-
NORTH CENTRAL ILLINOIS

CITY           SKY/WX    TMP DP  RH WIND       PRES   REMARKS
ROCKFORD       NOT AVBL
FREEPORT*      CLOUDY    51  51  99 N3        29.65S FOG
ROCHELLE*      CLOUDY    52  52  99 CALM      29.62F FOG
DE KALB*       CLOUDY    54  53  98 NE6       29.62S FOG
$$

ILZ005-006-012>014-019>023-241100-
NORTHEAST ILLINOIS

CITY           SKY/WX    TMP DP  RH WIND       PRES   REMARKS
CHICAGO-OHARE  LGT RAIN  53  51  93 NE7       29.60F
CHICAGO-MIDWAY NOT AVBL
AURORA         NOT AVBL
LANSING*       LGT RAIN  54  54 100 N7        29.60F
WAUKEGAN       NOT AVBL
DUPAGE AIRPORT NOT AVBL
WHEELING       NOT AVBL
NORTHERLY ISL    N/A     54  52  93 MISG        N/A
$$

LMZ740>746-241100-
SOUTHERN LAKE MICHIGAN

STATION/POSITION SKY/WX   TEMP    WIND        PRES    VSBY  WAVE
                          AIR SEA DIR/SP/G                  HT/PER
                          (F)     (DEG/KT/KT) (MB)    (MI)  (FT/S)
SOUTHERN BUOY              47 45  360/ 10/ 12 1003.6F         0
WILMETTE HARBOR            49 53                N/A           1/ 3
HARRISON CRIB              53     350/ 15/ 16   N/A
BURNHAM HARBOR             54     340/  9/ 12   N/A
CALUMET HARBOR             53     330/  8/ 12 1002.2F
BURNS HARBOR               51     360/ 14/ 17 1002.4F
MICHIGAN CITY              53     310/ 13/ 14   N/A
MICHIGAN CITY 6N           50 53  320/ 14/ 17   N/A           1/ 3
ST. JOSEPH                 57 57   90/  8/ 10 1001.6F         1/ 3
$$

ILZ025>027-034>036-040-047-049-050-058-095>099-241100-
WEST-CENTRAL ILLINOIS

CITY           SKY/WX    TMP DP  RH WIND       PRES   REMARKS
MACOMB*        CLOUDY    49  48  97 NW6       29.64F
$$

ILZ028>032-037-038-041>044-048-051>054-059>061-241100-
CENTRAL ILLINOIS

CITY           SKY/WX    TMP DP  RH WIND       PRES   REMARKS
BLOOMINGTON    FOG       52  52 100 NW7       29.60F VSB 1/4
PEORIA         NOT AVBL
LACON*         CLOUDY    54  54 100 NW5       29.60F FOG
SPRINGFIELD    NOT AVBL
TAYLORVILLE    NOT AVBL
$$

ILZ033-039-045-046-055>057-062-063-241100-
EAST-CENTRAL ILLINOIS

CITY           SKY/WX    TMP DP  RH WIND       PRES   REMARKS
$$

ILZ079-100>102-241100-
SOUTHWEST ILLINOIS

CITY           SKY/WX    TMP DP  RH WIND       PRES   REMARKS
SPARTA*        PTCLDY    55  52  90 NW5       29.61F
$$

ILZ064>066-069>071-074>076-080>082-084>086-088>090-092>094-241100-
SOUTH-CENTRAL ILLINOIS

CITY           SKY/WX    TMP DP  RH WIND       PRES   REMARKS
CARBONDALE     NOT AVBL
CAIRO*         DRIZZLE   57  55  91 NW5       29.59F
MARION         CLOUDY    57  57 100 CALM      29.60S
CENTRALIA*     CLOUDY    58  56  94 NW7       29.58F
SALEM*         CLOUDY    58  55  89 CALM      29.59F
$$

ILZ067-068-072-073-078-083-087-091-241100-
SOUTHEAST ILLINOIS

CITY           SKY/WX    TMP DP  RH WIND       PRES   REMARKS
HARRISBURG*    DRIZZLE   57  55  92 CALM      29.59S
ROBINSON*      CLOUDY    57  56  95 NW5       29.56F
CARMI*         RAIN      58  58  98 NW9       29.56F
$$

ABBREVIATIONS USED IN REMARKS
   TC - TEMPERATURE IN CELSIUS
  WCI - WIND CHILL INDEX
   HX - HEAT INDEX
  VSB - VISIBILITY
$$





USA.gov is the U.S. government's official web portal to all federal, state and local government web resources and services.